IRNSS-1F

Last updated on Thu Jul 03 2025 00:02:47 GMT+0000 (Coordinated Universal Time)

1 41384U 16015A 25183.50159994 .00000164 00000+0 00000+0 0 9993 2 41384 4.4779 105.6511 0017850 180.0273 208.1303 1.00271533 34167
UTC large
Height (km)
Speed (km/s)
/
Latitude / Longitude
Inclination (degrees)
Orbital Period (minutes)
Azimuth
Elevation
Range (km)
Doppler Factor

Next 0 passes for location: London (51.5072 / 0.1276)

Sorry there are no passes over London.